Time,TemperatureF,DewpointF,PressureIn,WindDirection,WindDirectionDegrees,WindSpeedMPH,WindSpeedGustMPH,Humidity,HourlyPrecipIn,Conditions,Clouds,dailyrainin,SoftwareType,DateUTC
2013-01-25 00:07:00,17.8,8.4,30.44,ESE,115,2.0,6.0,66,0.00,,---,0.00,VWS V14.01,2013-01-25 05:07:00,
2013-01-25 00:12:00,17.8,8.7,30.43,SE,144,1.0,6.0,67,0.00,,---,0.00,VWS V14.01,2013-01-25 05:12:00,
2013-01-25 00:17:00,17.7,8.6,30.42,ESE,117,0.0,6.0,67,0.00,,---,0.00,VWS V14.01,2013-01-25 05:17:00,
2013-01-25 00:22:00,17.7,8.9,30.42,SSW,193,2.0,6.0,68,0.00,,---,0.00,VWS V14.01,2013-01-25 05:22:00,
2013-01-25 00:27:00,17.8,9.4,30.42,East,88,2.0,6.0,69,0.00,,---,0.00,VWS V14.01,2013-01-25 05:27:00,
2013-01-25 00:32:00,17.8,9.7,30.42,East,79,1.0,2.0,70,0.00,,---,0.00,VWS V14.01,2013-01-25 05:32:00,
2013-01-25 00:37:00,17.8,10.0,30.41,East,93,1.0,3.0,71,0.00,,---,0.00,VWS V14.01,2013-01-25 05:37:00,
2013-01-25 00:42:00,17.8,10.0,30.40,East,82,0.0,3.0,71,0.00,,---,0.00,VWS V14.01,2013-01-25 05:42:00,
2013-01-25 00:47:00,17.9,10.1,30.40,SE,132,1.0,3.0,71,0.00,,---,0.00,VWS V14.01,2013-01-25 05:47:00,
2013-01-25 00:52:00,17.9,9.8,30.40,SE,140,1.0,4.0,70,0.00,,---,0.00,VWS V14.01,2013-01-25 05:52:00,
2013-01-25 00:57:00,17.9,9.8,30.40,East,86,2.0,4.0,70,0.00,,---,0.00,VWS V14.01,2013-01-25 05:57:00,
2013-01-25 01:02:00,17.9,10.1,30.40,SE,126,1.0,4.0,71,0.00,,---,0.00,VWS V14.01,2013-01-25 06:02:00,
2013-01-25 01:07:00,17.9,10.1,30.39,ENE,73,3.0,5.0,71,0.00,,---,0.00,VWS V14.01,2013-01-25 06:07:00,
2013-01-25 01:12:00,17.9,10.1,30.40,East,96,0.0,5.0,71,0.00,,---,0.00,VWS V14.01,2013-01-25 06:12:00,
2013-01-25 01:17:00,17.9,10.4,30.39,ENE,76,1.0,5.0,72,0.00,,---,0.00,VWS V14.01,2013-01-25 06:17:00,
2013-01-25 01:22:00,17.9,10.4,30.39,ESE,113,1.0,5.0,72,0.00,,---,0.00,VWS V14.01,2013-01-25 06:22:00,
2013-01-25 01:27:00,18.0,10.8,30.40,ENE,68,3.0,5.0,73,0.00,,---,0.00,VWS V14.01,2013-01-25 06:27:00,
2013-01-25 01:32:00,18.1,10.6,30.40,NE,55,0.0,3.0,72,0.00,,---,0.00,VWS V14.01,2013-01-25 06:32:00,
2013-01-25 01:37:00,18.1,10.6,30.40,SSE,157,1.0,4.0,72,0.00,,---,0.00,VWS V14.01,2013-01-25 06:37:00,
2013-01-25 01:42:00,18.1,10.6,30.40,East,96,1.0,4.0,72,0.00,,---,0.00,VWS V14.01,2013-01-25 06:42:00,
2013-01-25 01:47:00,18.1,10.3,30.40,SE,128,0.0,4.0,71,0.00,,---,0.00,VWS V14.01,2013-01-25 06:47:00,
2013-01-25 01:52:00,18.2,10.7,30.40,ESE,113,0.0,4.0,72,0.00,,---,0.00,VWS V14.01,2013-01-25 06:52:00,
2013-01-25 01:57:00,18.2,10.7,30.39,SE,127,0.0,4.0,72,0.00,,---,0.00,VWS V14.01,2013-01-25 06:57:00,
2013-01-25 02:02:00,18.3,10.8,30.39,ESE,115,0.0,1.0,72,0.00,,---,0.00,VWS V14.01,2013-01-25 07:02:00,
2013-01-25 02:07:00,18.4,10.9,30.39,ESE,114,1.0,3.0,72,0.00,,---,0.00,VWS V14.01,2013-01-25 07:07:00,
2013-01-25 02:12:00,18.5,11.0,30.39,SSE,154,0.0,3.0,72,0.00,,---,0.00,VWS V14.01,2013-01-25 07:12:00,
2013-01-25 02:17:00,18.5,11.0,30.39,ESE,112,1.0,3.0,72,0.00,,---,0.00,VWS V14.01,2013-01-25 07:17:00,
2013-01-25 02:22:00,18.6,11.1,30.39,East,93,2.0,3.0,72,0.00,,---,0.00,VWS V14.01,2013-01-25 07:22:00,
2013-01-25 02:27:00,18.6,10.8,30.40,ESE,102,0.0,3.0,71,0.00,,---,0.00,VWS V14.01,2013-01-25 07:27:00,
2013-01-25 02:32:00,18.6,10.8,30.39,ESE,106,0.0,3.0,71,0.00,,---,0.00,VWS V14.01,2013-01-25 07:32:00,
2013-01-25 02:37:00,18.6,10.8,30.39,ESE,109,1.0,3.0,71,0.00,,---,0.00,VWS V14.01,2013-01-25 07:37:00,
2013-01-25 02:42:00,18.6,10.8,30.38,SSE,150,0.0,3.0,71,0.00,,---,0.00,VWS V14.01,2013-01-25 07:42:00,
2013-01-25 02:47:00,18.6,10.8,30.37,ESE,103,1.0,3.0,71,0.00,,---,0.00,VWS V14.01,2013-01-25 07:47:00,
2013-01-25 02:52:00,18.6,10.8,30.36,NE,56,0.0,5.0,71,0.00,,---,0.00,VWS V14.01,2013-01-25 07:52:00,
2013-01-25 02:57:00,18.6,10.8,30.36,ESE,104,1.0,7.0,71,0.00,,---,0.00,VWS V14.01,2013-01-25 07:57:00,
2013-01-25 03:02:00,18.6,10.8,30.36,ENE,72,1.0,5.0,71,0.00,,---,0.00,VWS V14.01,2013-01-25 08:02:00,
2013-01-25 03:07:00,18.6,10.8,30.35,SE,145,1.0,5.0,71,0.00,,---,0.00,VWS V14.01,2013-01-25 08:07:00,
2013-01-25 03:12:00,18.6,10.8,30.35,SSE,167,1.0,5.0,71,0.00,,---,0.00,VWS V14.01,2013-01-25 08:12:00,
2013-01-25 03:17:00,18.6,10.8,30.35,East,93,0.0,5.0,71,0.00,,---,0.00,VWS V14.01,2013-01-25 08:17:00,
2013-01-25 03:22:00,18.6,10.5,30.35,SE,143,0.0,5.0,70,0.00,,---,0.00,VWS V14.01,2013-01-25 08:22:00,
2013-01-25 03:27:00,18.6,10.5,30.34,ESE,119,0.0,5.0,70,0.00,,---,0.00,VWS V14.01,2013-01-25 08:27:00,
2013-01-25 03:32:00,18.6,10.5,30.34,East,90,2.0,3.0,70,0.00,,---,0.00,VWS V14.01,2013-01-25 08:32:00,
2013-01-25 03:37:00,18.6,10.8,30.33,East,98,0.0,3.0,71,0.00,,---,0.00,VWS V14.01,2013-01-25 08:37:00,
2013-01-25 03:42:00,18.6,10.8,30.33,SE,137,0.0,4.0,71,0.00,,---,0.00,VWS V14.01,2013-01-25 08:42:00,
2013-01-25 03:47:00,18.6,10.5,30.32,SE,135,2.0,4.0,70,0.00,,---,0.00,VWS V14.01,2013-01-25 08:47:00,
2013-01-25 03:52:00,18.6,10.8,30.32,SSE,167,1.0,4.0,71,0.00,,---,0.00,VWS V14.01,2013-01-25 08:52:00,
2013-01-25 03:57:00,18.7,10.9,30.32,ESE,105,0.0,4.0,71,0.00,,---,0.00,VWS V14.01,2013-01-25 08:57:00,
2013-01-25 04:02:00,18.7,10.9,30.31,NE,55,1.0,3.0,71,0.00,,---,0.00,VWS V14.01,2013-01-25 09:02:00,
2013-01-25 04:07:00,18.7,10.9,30.30,East,85,0.0,3.0,71,0.00,,---,0.00,VWS V14.01,2013-01-25 09:07:00,
2013-01-25 04:12:00,18.7,10.9,30.29,East,88,2.0,3.0,71,0.00,,---,0.00,VWS V14.01,2013-01-25 09:12:00,
2013-01-25 04:17:00,18.7,10.9,30.29,SE,144,1.0,6.0,71,0.00,,---,0.00,VWS V14.01,2013-01-25 09:17:00,
2013-01-25 04:22:00,18.7,10.9,30.28,SE,143,3.0,6.0,71,0.00,,---,0.00,VWS V14.01,2013-01-25 09:22:00,
2013-01-25 04:27:00,18.7,10.9,30.27,ESE,117,1.0,6.0,71,0.00,,---,0.00,VWS V14.01,2013-01-25 09:27:00,
2013-01-25 04:33:00,18.7,11.2,30.27,South,169,2.0,2.0,72,0.00,,---,0.00,VWS V14.01,2013-01-25 09:33:00,
2013-01-25 04:38:00,18.7,11.2,30.27,ESE,111,1.0,2.0,72,0.00,,---,0.00,VWS V14.01,2013-01-25 09:38:00,
2013-01-25 04:43:00,18.7,11.2,30.27,SSW,206,7.0,7.0,72,0.00,,---,0.00,VWS V14.01,2013-01-25 09:43:00,
2013-01-25 04:48:00,18.7,10.9,30.27,WSW,257,2.0,7.0,71,0.00,,---,0.00,VWS V14.01,2013-01-25 09:48:00,
2013-01-25 04:53:00,18.7,10.9,30.27,ESE,115,1.0,7.0,71,0.00,,---,0.00,VWS V14.01,2013-01-25 09:53:00,
2013-01-25 04:58:00,18.7,11.2,30.27,SE,140,2.0,7.0,72,0.00,,---,0.00,VWS V14.01,2013-01-25 09:58:00,
2013-01-25 05:03:00,18.7,11.2,30.27,South,172,0.0,3.0,72,0.00,,---,0.00,VWS V14.01,2013-01-25 10:03:00,
2013-01-25 05:08:00,18.7,11.2,30.27,SSE,154,0.0,6.0,72,0.00,,---,0.00,VWS V14.01,2013-01-25 10:08:00,
2013-01-25 05:13:00,18.7,11.2,30.27,SSE,159,1.0,8.0,72,0.00,,---,0.00,VWS V14.01,2013-01-25 10:13:00,
2013-01-25 05:18:00,18.8,11.6,30.26,SE,124,1.0,8.0,73,0.00,,---,0.00,VWS V14.01,2013-01-25 10:18:00,
2013-01-25 05:23:00,18.7,11.2,30.26,East,87,1.0,8.0,72,0.00,,---,0.00,VWS V14.01,2013-01-25 10:23:00,
2013-01-25 05:28:00,18.8,11.3,30.26,ESE,121,2.0,8.0,72,0.00,,---,0.00,VWS V14.01,2013-01-25 10:28:00,
2013-01-25 05:33:00,18.7,10.9,30.25,East,90,2.0,4.0,71,0.00,,---,0.00,VWS V14.01,2013-01-25 10:33:00,
2013-01-25 05:38:00,18.7,10.9,30.24,ESE,121,2.0,7.0,71,0.00,,---,0.00,VWS V14.01,2013-01-25 10:38:00,
2013-01-25 05:43:00,18.7,11.2,30.23,ESE,110,3.0,7.0,72,0.00,,---,0.00,VWS V14.01,2013-01-25 10:43:00,
2013-01-25 05:48:00,18.7,11.5,30.23,South,174,1.0,7.0,73,0.00,,---,0.00,VWS V14.01,2013-01-25 10:48:00,
2013-01-25 05:53:00,18.7,11.5,30.23,East,96,0.0,7.0,73,0.00,,---,0.00,VWS V14.01,2013-01-25 10:53:00,
2013-01-25 05:58:00,18.6,11.7,30.22,ESE,120,0.0,7.0,74,0.00,,---,0.00,VWS V14.01,2013-01-25 10:58:00,
2013-01-25 06:03:00,18.5,12.2,30.21,ESE,103,1.0,3.0,76,0.00,,---,0.00,VWS V14.01,2013-01-25 11:03:00,
2013-01-25 06:08:00,18.3,12.6,30.21,SE,145,1.0,7.0,78,0.00,,---,0.00,VWS V14.01,2013-01-25 11:08:00,
2013-01-25 06:13:00,18.1,12.7,30.20,SSE,159,1.0,7.0,79,0.00,,---,0.00,VWS V14.01,2013-01-25 11:13:00,
2013-01-25 06:18:00,18.1,12.4,30.20,SE,132,1.0,7.0,78,0.00,,---,0.00,VWS V14.01,2013-01-25 11:18:00,
2013-01-25 06:23:00,18.3,12.6,30.19,ENE,75,0.0,7.0,78,0.00,,---,0.00,VWS V14.01,2013-01-25 11:23:00,
2013-01-25 06:28:00,18.5,12.2,30.19,ENE,71,0.0,7.0,76,0.00,,---,0.00,VWS V14.01,2013-01-25 11:28:00,
2013-01-25 06:33:00,18.7,12.1,30.19,ENE,78,1.0,2.0,75,0.00,,---,0.00,VWS V14.01,2013-01-25 11:33:00,
2013-01-25 06:38:00,18.9,12.0,30.20,East,81,1.0,4.0,74,0.00,,---,0.00,VWS V14.01,2013-01-25 11:38:00,
2013-01-25 06:43:00,18.9,12.0,30.20,SSE,158,0.0,4.0,74,0.00,,---,0.00,VWS V14.01,2013-01-25 11:43:00,
2013-01-25 06:48:00,18.9,12.0,30.20,South,180,0.0,4.0,74,0.00,,---,0.00,VWS V14.01,2013-01-25 11:48:00,
2013-01-25 06:53:00,19.0,11.8,30.19,East,80,1.0,7.0,73,0.00,,---,0.00,VWS V14.01,2013-01-25 11:53:00,
2013-01-25 06:58:00,19.0,11.5,30.19,ESE,106,1.0,7.0,72,0.00,,---,0.00,VWS V14.01,2013-01-25 11:58:00,
2013-01-25 07:03:00,19.0,11.5,30.19,East,101,1.0,2.0,72,0.00,,---,0.00,VWS V14.01,2013-01-25 12:03:00,
2013-01-25 07:08:00,19.0,11.5,30.19,East,84,0.0,3.0,72,0.00,,---,0.00,VWS V14.01,2013-01-25 12:08:00,
2013-01-25 07:13:00,19.0,11.8,30.18,East,95,0.0,3.0,73,0.00,,---,0.00,VWS V14.01,2013-01-25 12:13:00,
2013-01-25 07:18:00,19.1,11.9,30.18,East,96,1.0,3.0,73,0.00,,---,0.00,VWS V14.01,2013-01-25 12:18:00,
2013-01-25 07:23:00,19.1,11.6,30.17,SE,134,1.0,4.0,72,0.00,,---,0.00,VWS V14.01,2013-01-25 12:23:00,
2013-01-25 07:28:00,19.1,11.6,30.17,SSE,155,7.0,7.0,72,0.00,,---,0.00,VWS V14.01,2013-01-25 12:28:00,
2013-01-25 07:33:00,19.1,11.9,30.17,East,87,0.0,2.0,73,0.00,,---,0.00,VWS V14.01,2013-01-25 12:33:00,
2013-01-25 07:38:00,19.1,11.9,30.17,East,96,0.0,2.0,73,0.00,,---,0.00,VWS V14.01,2013-01-25 12:38:00,
2013-01-25 07:43:00,19.1,11.9,30.18,ENE,67,3.0,3.0,73,0.00,,---,0.00,VWS V14.01,2013-01-25 12:43:00,
2013-01-25 07:48:00,19.2,12.3,30.17,ENE,67,0.0,3.0,74,0.00,,---,0.00,VWS V14.01,2013-01-25 12:48:00,
2013-01-25 07:53:00,19.2,12.0,30.17,East,86,1.0,3.0,73,0.00,,---,0.00,VWS V14.01,2013-01-25 12:53:00,
2013-01-25 07:58:00,19.2,12.0,30.17,SE,138,0.0,4.0,73,0.00,,---,0.00,VWS V14.01,2013-01-25 12:58:00,
2013-01-25 08:03:00,19.3,11.8,30.17,East,92,1.0,3.0,72,0.00,,---,0.00,VWS V14.01,2013-01-25 13:03:00,
2013-01-25 08:08:00,19.3,11.8,30.17,SSE,150,2.0,3.0,72,0.00,,---,0.00,VWS V14.01,2013-01-25 13:08:00,
2013-01-25 08:13:00,19.2,12.0,30.17,SSE,156,1.0,3.0,73,0.00,,---,0.00,VWS V14.01,2013-01-25 13:13:00,
2013-01-25 08:18:00,19.3,11.8,30.17,South,170,1.0,6.0,72,0.00,,---,0.00,VWS V14.01,2013-01-25 13:18:00,
2013-01-25 08:23:00,19.3,12.1,30.17,SE,138,1.0,6.0,73,0.00,,---,0.00,VWS V14.01,2013-01-25 13:23:00,
2013-01-25 08:28:00,19.3,11.8,30.17,SSE,160,2.0,6.0,72,0.00,,---,0.00,VWS V14.01,2013-01-25 13:28:00,
2013-01-25 08:33:00,19.4,12.2,30.17,SSE,155,1.0,3.0,73,0.00,,---,0.00,VWS V14.01,2013-01-25 13:33:00,
2013-01-25 08:38:00,19.5,12.3,30.17,SSE,154,2.0,4.0,73,0.00,,---,0.00,VWS V14.01,2013-01-25 13:38:00,
2013-01-25 08:43:00,19.5,12.6,30.17,SSE,161,2.0,5.0,74,0.00,,---,0.00,VWS V14.01,2013-01-25 13:43:00,
2013-01-25 08:48:00,19.2,13.2,30.17,South,187,3.0,6.0,77,0.00,,---,0.00,VWS V14.01,2013-01-25 13:48:00,
2013-01-25 08:53:00,18.8,13.7,30.17,SSE,163,3.0,6.0,80,0.00,,---,0.00,VWS V14.01,2013-01-25 13:53:00,
2013-01-25 08:58:00,18.5,13.9,30.17,SSW,194,3.0,6.0,82,0.00,,---,0.00,VWS V14.01,2013-01-25 13:58:00,
2013-01-25 09:03:00,18.4,14.4,30.17,South,185,2.0,5.0,84,0.00,,---,0.00,VWS V14.01,2013-01-25 14:03:00,
2013-01-25 09:08:00,18.4,14.6,30.16,South,179,0.0,5.0,85,0.00,,---,0.00,VWS V14.01,2013-01-25 14:08:00,
2013-01-25 09:13:00,18.4,14.6,30.15,South,169,1.0,5.0,85,0.00,,---,0.00,VWS V14.01,2013-01-25 14:13:00,
2013-01-25 09:18:00,18.5,15.0,30.15,South,169,0.0,5.0,86,0.00,,---,0.00,VWS V14.01,2013-01-25 14:18:00,
2013-01-25 09:23:00,18.6,15.1,30.15,East,97,1.0,5.0,86,0.00,,---,0.00,VWS V14.01,2013-01-25 14:23:00,
2013-01-25 09:28:00,18.7,15.2,30.15,ESE,106,1.0,5.0,86,0.00,,---,0.00,VWS V14.01,2013-01-25 14:28:00,
2013-01-25 09:33:00,18.7,15.2,30.15,SE,138,2.0,3.0,86,0.00,,---,0.00,VWS V14.01,2013-01-25 14:33:00,
2013-01-25 09:38:00,18.8,15.3,30.14,South,169,1.0,3.0,86,0.00,,---,0.00,VWS V14.01,2013-01-25 14:38:00,
2013-01-25 09:43:00,18.8,15.6,30.13,South,169,2.0,3.0,87,0.00,,---,0.00,VWS V14.01,2013-01-25 14:43:00,
2013-01-25 09:48:00,18.8,15.3,30.14,ESE,119,1.0,4.0,86,0.00,,---,0.00,VWS V14.01,2013-01-25 14:48:00,
2013-01-25 09:53:00,18.8,15.3,30.14,SSE,155,0.0,4.0,86,0.00,,---,0.00,VWS V14.01,2013-01-25 14:53:00,
2013-01-25 09:58:00,18.9,15.4,30.14,SSE,155,0.0,4.0,86,0.00,,---,0.00,VWS V14.01,2013-01-25 14:58:00,
2013-01-25 10:03:00,19.0,15.5,30.14,SSE,159,1.0,2.0,86,0.00,,---,0.00,VWS V14.01,2013-01-25 15:03:00,
2013-01-25 10:08:00,19.2,16.0,30.13,SSE,148,1.0,2.0,87,0.00,,---,0.00,VWS V14.01,2013-01-25 15:08:00,
2013-01-25 10:13:00,19.4,16.2,30.13,SSE,160,1.0,3.0,87,0.00,,---,0.00,VWS V14.01,2013-01-25 15:13:00,
2013-01-25 10:18:00,19.8,16.6,30.13,SSE,160,1.0,3.0,87,0.00,,---,0.00,VWS V14.01,2013-01-25 15:18:00,
2013-01-25 10:23:00,20.0,16.5,30.12,South,174,2.0,3.0,86,0.00,,---,0.00,VWS V14.01,2013-01-25 15:23:00,
2013-01-25 10:28:00,20.2,16.4,30.13,SSE,152,1.0,3.0,85,0.00,,---,0.00,VWS V14.01,2013-01-25 15:28:00,
2013-01-25 10:33:00,20.3,16.5,30.13,SSE,152,0.0,2.0,85,0.00,,---,0.00,VWS V14.01,2013-01-25 15:33:00,
2013-01-25 10:38:00,20.4,16.4,30.13,SSE,156,4.0,9.0,84,0.00,,---,0.00,VWS V14.01,2013-01-25 15:38:00,
2013-01-25 10:43:00,20.6,16.8,30.12,South,174,1.0,9.0,85,0.00,,---,0.00,VWS V14.01,2013-01-25 15:43:00,
2013-01-25 10:48:00,20.7,16.6,30.12,South,172,4.0,10.0,84,0.00,,---,0.00,VWS V14.01,2013-01-25 15:48:00,
2013-01-25 10:53:00,20.7,16.4,30.11,SSE,161,0.0,10.0,83,0.00,,---,0.00,VWS V14.01,2013-01-25 15:53:00,
2013-01-25 10:58:00,20.8,16.5,30.11,South,172,2.0,10.0,83,0.00,,---,0.00,VWS V14.01,2013-01-25 15:58:00,
2013-01-25 11:03:00,21.0,16.9,30.12,South,186,4.0,6.0,84,0.00,,---,0.00,VWS V14.01,2013-01-25 16:03:00,
2013-01-25 11:08:00,20.9,16.6,30.12,South,174,2.0,8.0,83,0.00,,---,0.00,VWS V14.01,2013-01-25 16:08:00,
2013-01-25 11:14:00,20.8,16.5,30.11,SSW,192,6.0,9.0,83,0.00,,---,0.00,VWS V14.01,2013-01-25 16:14:00,
2013-01-25 11:19:00,20.8,16.2,30.11,South,181,6.0,11.0,82,0.00,,---,0.00,VWS V14.01,2013-01-25 16:19:00,
2013-01-25 11:24:00,21.3,17.0,30.11,South,178,3.0,11.0,83,0.00,,---,0.00,VWS V14.01,2013-01-25 16:24:00,
2013-01-25 11:29:00,21.5,16.9,30.11,South,173,2.0,11.0,82,0.00,,---,0.00,VWS V14.01,2013-01-25 16:29:00,
2013-01-25 11:34:00,21.4,16.8,30.11,South,178,11.0,11.0,82,0.00,,---,0.00,VWS V14.01,2013-01-25 16:34:00,
2013-01-25 11:39:00,21.2,16.3,30.11,SSW,192,4.0,11.0,81,0.00,,---,0.00,VWS V14.01,2013-01-25 16:39:00,
2013-01-25 11:44:00,21.5,16.9,30.11,South,182,3.0,11.0,82,0.00,,---,0.00,VWS V14.01,2013-01-25 16:44:00,
2013-01-25 11:49:00,21.8,17.2,30.10,SSE,151,4.0,11.0,82,0.00,,---,0.00,VWS V14.01,2013-01-25 16:49:00,
2013-01-25 11:54:00,21.7,16.5,30.10,SSW,211,6.0,11.0,80,0.00,,---,0.00,VWS V14.01,2013-01-25 16:54:00,
2013-01-25 11:59:00,21.6,16.4,30.10,SSE,161,5.0,11.0,80,0.00,,---,0.00,VWS V14.01,2013-01-25 16:59:00,
2013-01-25 12:04:00,21.6,16.4,30.10,SSW,201,5.0,8.0,80,0.00,,---,0.00,VWS V14.01,2013-01-25 17:04:00,
2013-01-25 12:09:00,21.6,16.4,30.09,SSW,193,2.0,8.0,80,0.00,,---,0.00,VWS V14.01,2013-01-25 17:09:00,
2013-01-25 12:14:00,21.7,16.5,30.09,SSE,163,6.0,8.0,80,0.00,,---,0.00,VWS V14.01,2013-01-25 17:14:00,
2013-01-25 12:19:00,21.8,16.6,30.08,SSW,194,7.0,8.0,80,0.00,,---,0.00,VWS V14.01,2013-01-25 17:19:00,
2013-01-25 12:24:00,21.8,16.6,30.08,South,189,5.0,8.0,80,0.00,,---,0.00,VWS V14.01,2013-01-25 17:24:00,
2013-01-25 12:29:00,21.9,16.7,30.07,SSW,193,7.0,8.0,80,0.00,,---,0.00,VWS V14.01,2013-01-25 17:29:00,
2013-01-25 12:34:00,22.0,16.8,30.07,SSE,165,5.0,10.0,80,0.00,,---,0.00,VWS V14.01,2013-01-25 17:34:00,
2013-01-25 12:39:00,22.1,16.9,30.06,SSW,209,6.0,10.0,80,0.00,,---,0.00,VWS V14.01,2013-01-25 17:39:00,
2013-01-25 12:44:00,22.2,17.0,30.06,South,188,9.0,10.0,80,0.00,,---,0.00,VWS V14.01,2013-01-25 17:44:00,
2013-01-25 12:49:00,22.2,17.0,30.06,SSW,195,7.0,10.0,80,0.00,,---,0.00,VWS V14.01,2013-01-25 17:49:00,
2013-01-25 12:54:00,22.2,17.0,30.05,South,174,5.0,10.0,80,0.00,,---,0.00,VWS V14.01,2013-01-25 17:54:00,
2013-01-25 12:59:00,22.4,16.9,30.05,South,169,6.0,10.0,79,0.00,,---,0.00,VWS V14.01,2013-01-25 17:59:00,
2013-01-25 13:04:00,22.3,16.8,30.05,South,182,3.0,10.0,79,0.00,,---,0.00,VWS V14.01,2013-01-25 18:04:00,
2013-01-25 13:09:00,22.4,16.9,30.04,South,188,8.0,10.0,79,0.00,,---,0.00,VWS V14.01,2013-01-25 18:09:00,
2013-01-25 13:14:00,22.5,17.0,30.04,SSW,196,6.0,12.0,79,0.00,,---,0.00,VWS V14.01,2013-01-25 18:14:00,
2013-01-25 13:19:00,22.6,17.1,30.04,SSW,205,6.0,12.0,79,0.00,,---,0.00,VWS V14.01,2013-01-25 18:19:00,
2013-01-25 13:24:00,22.5,17.0,30.03,SSW,192,6.0,12.0,79,0.00,,---,0.00,VWS V14.01,2013-01-25 18:24:00,
2013-01-25 13:29:00,22.5,17.3,30.03,SSW,213,6.0,12.0,80,0.00,,---,0.00,VWS V14.01,2013-01-25 18:29:00,
2013-01-25 13:34:00,22.4,16.9,30.03,SSW,213,8.0,9.0,79,0.00,,---,0.00,VWS V14.01,2013-01-25 18:34:00,
2013-01-25 13:39:00,22.3,16.8,30.03,SW,223,5.0,10.0,79,0.00,,---,0.00,VWS V14.01,2013-01-25 18:39:00,
2013-01-25 13:44:00,22.4,17.2,30.02,South,190,7.0,10.0,80,0.00,,---,0.00,VWS V14.01,2013-01-25 18:44:00,
2013-01-25 13:49:00,22.6,17.4,30.02,South,178,7.0,10.0,80,0.00,,---,0.00,VWS V14.01,2013-01-25 18:49:00,
2013-01-25 13:54:00,22.7,17.5,30.01,SW,225,4.0,10.0,80,0.00,,---,0.00,VWS V14.01,2013-01-25 18:54:00,
2013-01-25 13:59:00,22.8,17.3,30.01,SW,219,7.0,10.0,79,0.00,,---,0.00,VWS V14.01,2013-01-25 18:59:00,
2013-01-25 14:04:00,22.6,17.1,30.01,SSW,198,6.0,9.0,79,0.00,,---,0.00,VWS V14.01,2013-01-25 19:04:00,
2013-01-25 14:09:00,22.6,17.4,30.01,SSW,196,5.0,9.0,80,0.00,,---,0.00,VWS V14.01,2013-01-25 19:09:00,
2013-01-25 14:14:00,22.8,17.6,30.00,SW,219,4.0,9.0,80,0.00,,---,0.00,VWS V14.01,2013-01-25 19:14:00,
2013-01-25 14:19:00,22.7,17.2,30.00,SW,217,8.0,9.0,79,0.00,,---,0.00,VWS V14.01,2013-01-25 19:19:00,
2013-01-25 14:24:00,22.7,17.2,30.00,SW,221,4.0,9.0,79,0.00,,---,0.00,VWS V14.01,2013-01-25 19:24:00,
2013-01-25 14:29:00,22.9,17.7,30.00,SW,232,8.0,10.0,80,0.00,,---,0.00,VWS V14.01,2013-01-25 19:29:00,
2013-01-25 14:34:00,22.9,17.7,30.00,SSW,193,6.0,6.0,80,0.00,,---,0.00,VWS V14.01,2013-01-25 19:34:00,
2013-01-25 14:39:00,23.0,17.8,30.00,SSW,212,7.0,8.0,80,0.00,,---,0.00,VWS V14.01,2013-01-25 19:39:00,
2013-01-25 14:44:00,23.0,17.8,30.00,SW,221,4.0,8.0,80,0.00,,---,0.00,VWS V14.01,2013-01-25 19:44:00,
2013-01-25 14:49:00,22.9,17.7,30.00,SW,222,5.0,10.0,80,0.00,,---,0.00,VWS V14.01,2013-01-25 19:49:00,
2013-01-25 14:54:00,22.8,17.6,30.00,SW,229,6.0,10.0,80,0.00,,---,0.00,VWS V14.01,2013-01-25 19:54:00,
2013-01-25 14:59:00,22.7,17.5,29.99,SW,236,5.0,10.0,80,0.00,,---,0.00,VWS V14.01,2013-01-25 19:59:00,
2013-01-25 15:04:00,22.8,17.9,30.00,SSW,207,6.0,7.0,81,0.00,,---,0.00,VWS V14.01,2013-01-25 20:04:00,
2013-01-25 15:09:00,22.8,17.9,30.00,WSW,238,6.0,9.0,81,0.00,,---,0.00,VWS V14.01,2013-01-25 20:09:00,
2013-01-25 15:14:00,22.8,17.6,29.99,SSW,195,3.0,9.0,80,0.00,,---,0.00,VWS V14.01,2013-01-25 20:14:00,
2013-01-25 15:19:00,22.7,17.5,30.00,SW,217,5.0,9.0,80,0.00,,---,0.00,VWS V14.01,2013-01-25 20:19:00,
2013-01-25 15:24:00,22.8,17.9,29.99,SSW,210,7.0,9.0,81,0.00,,---,0.00,VWS V14.01,2013-01-25 20:24:00,
2013-01-25 15:29:00,22.9,17.7,29.99,SSW,199,7.0,9.0,80,0.00,,---,0.00,VWS V14.01,2013-01-25 20:29:00,
2013-01-25 15:34:00,22.8,17.6,29.99,SW,230,5.0,7.0,80,0.00,,---,0.00,VWS V14.01,2013-01-25 20:34:00,
2013-01-25 15:39:00,22.8,17.6,29.99,SSW,210,7.0,10.0,80,0.00,,---,0.00,VWS V14.01,2013-01-25 20:39:00,
2013-01-25 15:44:00,22.7,17.8,30.00,South,189,8.0,10.0,81,0.00,,---,0.00,VWS V14.01,2013-01-25 20:44:00,
2013-01-25 15:49:00,22.7,17.5,30.00,SW,235,5.0,10.0,80,0.00,,---,0.00,VWS V14.01,2013-01-25 20:49:00,
2013-01-25 15:54:00,22.7,17.8,30.01,SW,234,4.0,10.0,81,0.00,,---,0.00,VWS V14.01,2013-01-25 20:54:00,
2013-01-25 15:59:00,22.8,17.9,30.01,SW,215,3.0,10.0,81,0.00,,---,0.00,VWS V14.01,2013-01-25 20:59:00,
2013-01-25 16:04:00,22.9,18.0,30.00,SW,232,2.0,7.0,81,0.00,,---,0.00,VWS V14.01,2013-01-25 21:04:00,
2013-01-25 16:09:00,22.9,18.0,30.00,SW,225,7.0,7.0,81,0.00,,---,0.00,VWS V14.01,2013-01-25 21:09:00,
2013-01-25 16:14:00,22.8,17.9,30.00,SSW,206,6.0,8.0,81,0.00,,---,0.00,VWS V14.01,2013-01-25 21:14:00,
2013-01-25 16:19:00,22.8,17.9,30.00,SSW,194,5.0,8.0,81,0.00,,---,0.00,VWS V14.01,2013-01-25 21:19:00,
2013-01-25 16:24:00,22.8,18.1,30.00,SW,219,8.0,10.0,82,0.00,,---,0.00,VWS V14.01,2013-01-25 21:24:00,
2013-01-25 16:29:00,22.8,18.1,30.00,SSW,210,6.0,10.0,82,0.00,,---,0.00,VWS V14.01,2013-01-25 21:29:00,
2013-01-25 16:34:00,22.8,18.4,30.00,SSW,209,4.0,7.0,83,0.00,,---,0.00,VWS V14.01,2013-01-25 21:34:00,
2013-01-25 16:39:00,22.8,18.1,30.00,SSW,209,4.0,10.0,82,0.00,,---,0.00,VWS V14.01,2013-01-25 21:39:00,
2013-01-25 16:44:00,22.7,18.0,30.00,SSW,212,6.0,10.0,82,0.00,,---,0.00,VWS V14.01,2013-01-25 21:44:00,
2013-01-25 16:49:00,22.8,18.1,30.00,SSW,197,5.0,10.0,82,0.00,,---,0.00,VWS V14.01,2013-01-25 21:49:00,
2013-01-25 16:54:00,22.8,18.4,30.00,SW,227,3.0,10.0,83,0.00,,---,0.00,VWS V14.01,2013-01-25 21:54:00,
2013-01-25 16:59:00,22.7,18.0,30.00,SSW,209,6.0,10.0,82,0.00,,---,0.00,VWS V14.01,2013-01-25 21:59:00,
2013-01-25 17:04:00,22.8,18.4,30.00,SSW,198,4.0,7.0,83,0.00,,---,0.00,VWS V14.01,2013-01-25 22:04:00,
2013-01-25 17:09:00,22.7,18.0,30.00,SW,226,6.0,8.0,82,0.00,,---,0.00,VWS V14.01,2013-01-25 22:09:00,
2013-01-25 17:15:00,22.8,18.4,30.00,SSW,209,6.0,8.0,83,0.00,,---,0.00,VWS V14.01,2013-01-25 22:15:00,
2013-01-25 17:20:00,22.8,18.4,30.00,SW,218,4.0,8.0,83,0.00,,---,0.00,VWS V14.01,2013-01-25 22:20:00,
2013-01-25 17:25:00,22.8,18.4,30.00,SW,216,4.0,8.0,83,0.00,,---,0.00,VWS V14.01,2013-01-25 22:25:00,
2013-01-25 17:30:00,22.8,18.4,30.00,SSW,194,4.0,8.0,83,0.00,,---,0.00,VWS V14.01,2013-01-25 22:30:00,
2013-01-25 17:35:00,22.8,18.4,30.00,SSW,200,2.0,5.0,83,0.00,,---,0.00,VWS V14.01,2013-01-25 22:35:00,
2013-01-25 17:40:00,22.8,18.4,30.00,SSW,213,3.0,7.0,83,0.00,,---,0.00,VWS V14.01,2013-01-25 22:40:00,
2013-01-25 17:45:00,22.8,18.4,30.00,SW,228,4.0,7.0,83,0.00,,---,0.00,VWS V14.01,2013-01-25 22:45:00,
2013-01-25 17:50:00,22.8,18.4,30.01,SW,231,2.0,7.0,83,0.00,,---,0.00,VWS V14.01,2013-01-25 22:50:00,
2013-01-25 17:55:00,22.8,18.4,30.01,SW,227,4.0,8.0,83,0.00,,---,0.00,VWS V14.01,2013-01-25 22:55:00,
2013-01-25 18:00:00,22.9,18.8,30.01,SW,232,4.0,8.0,84,0.00,,---,0.00,VWS V14.01,2013-01-25 23:00:00,
2013-01-25 18:05:00,22.8,18.7,30.01,SW,230,6.0,8.0,84,0.00,,---,0.00,VWS V14.01,2013-01-25 23:05:00,
2013-01-25 18:10:00,22.8,19.0,30.01,SW,229,6.0,8.0,85,0.00,,---,0.00,VWS V14.01,2013-01-25 23:10:00,
2013-01-25 18:15:00,22.7,18.9,30.00,SSW,212,6.0,8.0,85,0.00,,---,0.00,VWS V14.01,2013-01-25 23:15:00,
2013-01-25 18:20:00,22.7,18.9,30.01,SSW,203,3.0,8.0,85,0.00,,---,0.00,VWS V14.01,2013-01-25 23:20:00,
2013-01-25 18:25:00,22.7,19.1,30.01,SW,214,4.0,8.0,86,0.00,,---,0.00,VWS V14.01,2013-01-25 23:25:00,
2013-01-25 18:30:00,22.7,19.1,30.01,SW,228,4.0,8.0,86,0.00,,---,0.00,VWS V14.01,2013-01-25 23:30:00,
2013-01-25 18:35:00,22.7,19.1,30.01,SSW,209,4.0,6.0,86,0.00,,---,0.00,VWS V14.01,2013-01-25 23:35:00,
2013-01-25 18:40:00,22.7,19.1,30.01,SW,219,5.0,7.0,86,0.00,,---,0.00,VWS V14.01,2013-01-25 23:40:00,
2013-01-25 18:45:00,22.8,19.2,30.01,SW,227,3.0,8.0,86,0.00,,---,0.00,VWS V14.01,2013-01-25 23:45:00,
2013-01-25 18:50:00,22.8,19.2,30.02,SW,235,6.0,8.0,86,0.00,,---,0.00,VWS V14.01,2013-01-25 23:50:00,
2013-01-25 18:55:00,22.9,19.6,30.02,WSW,239,6.0,8.0,87,0.00,,---,0.00,VWS V14.01,2013-01-25 23:55:00,
2013-01-25 19:00:00,22.8,19.5,30.02,SSW,208,4.0,8.0,87,0.00,,---,0.00,VWS V14.01,2013-01-26 00:00:00,
2013-01-25 19:05:00,22.9,19.6,30.02,SW,219,5.0,8.0,87,0.00,,---,0.00,VWS V14.01,2013-01-26 00:05:00,
2013-01-25 19:10:00,22.8,19.5,30.02,SW,214,8.0,9.0,87,0.00,,---,0.00,VWS V14.01,2013-01-26 00:10:00,
2013-01-25 19:15:00,22.8,19.5,30.02,SW,219,3.0,9.0,87,0.00,,---,0.00,VWS V14.01,2013-01-26 00:15:00,
2013-01-25 19:20:00,22.8,19.5,30.02,SW,221,5.0,9.0,87,0.00,,---,0.00,VWS V14.01,2013-01-26 00:20:00,
2013-01-25 19:25:00,22.9,19.6,30.02,WSW,242,4.0,9.0,87,0.00,,---,0.00,VWS V14.01,2013-01-26 00:25:00,
2013-01-25 19:30:00,22.8,19.8,30.02,SW,234,3.0,9.0,88,0.00,,---,0.00,VWS V14.01,2013-01-26 00:30:00,
2013-01-25 19:35:00,22.7,19.7,30.02,SW,223,4.0,6.0,88,0.00,,---,0.00,VWS V14.01,2013-01-26 00:35:00,
2013-01-25 19:40:00,22.8,19.8,30.02,SW,219,4.0,6.0,88,0.00,,---,0.00,VWS V14.01,2013-01-26 00:40:00,
2013-01-25 19:45:00,22.8,19.8,30.02,South,190,3.0,6.0,88,0.00,,---,0.00,VWS V14.01,2013-01-26 00:45:00,
2013-01-25 19:50:00,22.9,19.9,30.02,SW,229,4.0,8.0,88,0.00,,---,0.00,VWS V14.01,2013-01-26 00:50:00,
2013-01-25 19:55:00,22.9,19.9,30.02,SSW,196,5.0,8.0,88,0.00,,---,0.00,VWS V14.01,2013-01-26 00:55:00,
2013-01-25 20:00:00,23.0,20.0,30.02,SSW,213,3.0,4.0,88,0.00,,---,0.00,VWS V14.01,2013-01-26 01:00:00,
2013-01-25 20:05:00,23.0,20.0,30.02,SSW,193,4.0,7.0,88,0.00,,---,0.00,VWS V14.01,2013-01-26 01:05:00,
2013-01-25 20:10:00,23.0,20.0,30.02,SW,234,4.0,7.0,88,0.00,,---,0.00,VWS V14.01,2013-01-26 01:10:00,
2013-01-25 20:15:00,23.1,20.1,30.02,SSW,209,4.0,7.0,88,0.00,,---,0.00,VWS V14.01,2013-01-26 01:15:00,
2013-01-25 20:20:00,23.1,20.4,30.02,SSW,204,3.0,7.0,89,0.00,,---,0.00,VWS V14.01,2013-01-26 01:20:00,
2013-01-25 20:25:00,23.2,20.5,30.02,SW,219,5.0,7.0,89,0.00,,---,0.00,VWS V14.01,2013-01-26 01:25:00,
2013-01-25 20:30:00,23.2,20.5,30.02,SSW,202,5.0,5.0,89,0.00,,---,0.00,VWS V14.01,2013-01-26 01:30:00,
2013-01-25 20:35:00,23.2,20.5,30.02,SSW,200,2.0,6.0,89,0.00,,---,0.00,VWS V14.01,2013-01-26 01:35:00,
2013-01-25 20:40:00,23.3,20.5,30.03,SW,216,4.0,6.0,89,0.00,,---,0.00,VWS V14.01,2013-01-26 01:40:00,
2013-01-25 20:45:00,23.3,20.5,30.03,SSW,210,3.0,6.0,89,0.00,,---,0.00,VWS V14.01,2013-01-26 01:45:00,
2013-01-25 20:50:00,23.3,20.5,30.02,SSW,198,2.0,6.0,89,0.00,,---,0.00,VWS V14.01,2013-01-26 01:50:00,
2013-01-25 20:55:00,23.3,20.5,30.02,SSW,207,4.0,6.0,89,0.00,,---,0.00,VWS V14.01,2013-01-26 01:55:00,
2013-01-25 21:00:00,23.4,20.6,30.02,SSW,192,4.0,4.0,89,0.00,,---,0.00,VWS V14.01,2013-01-26 02:00:00,
2013-01-25 21:05:00,23.4,20.6,30.02,SSW,195,4.0,6.0,89,0.00,,---,0.00,VWS V14.01,2013-01-26 02:05:00,
2013-01-25 21:10:00,23.4,20.6,30.02,SSW,196,4.0,6.0,89,0.00,,---,0.00,VWS V14.01,2013-01-26 02:10:00,
2013-01-25 21:15:00,23.4,20.6,30.02,SSW,209,2.0,6.0,89,0.00,,---,0.00,VWS V14.01,2013-01-26 02:15:00,
2013-01-25 21:20:00,23.4,20.6,30.02,SSW,198,2.0,6.0,89,0.00,,---,0.00,VWS V14.01,2013-01-26 02:20:00,
2013-01-25 21:25:00,23.4,20.6,30.02,SSW,199,3.0,6.0,89,0.00,,---,0.00,VWS V14.01,2013-01-26 02:25:00,
2013-01-25 21:30:00,23.4,20.6,30.03,South,187,3.0,3.0,89,0.00,,---,0.00,VWS V14.01,2013-01-26 02:30:00,
2013-01-25 21:35:00,23.4,20.6,30.02,SSW,194,2.0,4.0,89,0.00,,---,0.00,VWS V14.01,2013-01-26 02:35:00,
2013-01-25 21:40:00,23.5,20.7,30.02,SSW,193,1.0,4.0,89,0.00,,---,0.00,VWS V14.01,2013-01-26 02:40:00,
2013-01-25 21:45:00,23.5,20.7,30.02,SSW,193,1.0,4.0,89,0.00,,---,0.00,VWS V14.01,2013-01-26 02:45:00,
2013-01-25 21:50:00,23.5,20.7,30.02,SSW,196,1.0,4.0,89,0.00,,---,0.00,VWS V14.01,2013-01-26 02:50:00,
2013-01-25 21:55:00,23.6,20.8,30.03,SSW,196,1.0,4.0,89,0.00,,---,0.00,VWS V14.01,2013-01-26 02:55:00,
2013-01-25 22:00:00,23.6,20.8,30.03,SSW,195,2.0,3.0,89,0.00,,---,0.00,VWS V14.01,2013-01-26 03:00:00,
2013-01-25 22:05:00,23.6,20.8,30.03,SSW,195,2.0,3.0,89,0.00,,---,0.00,VWS V14.01,2013-01-26 03:05:00,
2013-01-25 22:10:00,23.6,20.8,30.03,SSW,195,2.0,3.0,89,0.00,,---,0.00,VWS V14.01,2013-01-26 03:10:00,
2013-01-25 22:15:00,23.6,20.8,30.03,SSW,195,2.0,3.0,89,0.00,,---,0.00,VWS V14.01,2013-01-26 03:15:00,
2013-01-25 22:20:00,23.6,20.8,30.03,South,182,2.0,3.0,89,0.00,,---,0.00,VWS V14.01,2013-01-26 03:20:00,
2013-01-25 22:25:00,23.6,20.8,30.03,South,177,2.0,4.0,89,0.00,,---,0.00,VWS V14.01,2013-01-26 03:25:00,
2013-01-25 22:30:00,23.6,20.8,30.03,South,177,0.0,1.0,89,0.00,,---,0.00,VWS V14.01,2013-01-26 03:30:00,
2013-01-25 22:35:00,23.6,20.8,30.03,South,187,3.0,3.0,89,0.00,,---,0.00,VWS V14.01,2013-01-26 03:35:00,
2013-01-25 22:40:00,23.6,20.8,30.03,South,176,2.0,3.0,89,0.00,,---,0.00,VWS V14.01,2013-01-26 03:40:00,
2013-01-25 22:45:00,23.6,20.8,30.03,South,176,0.0,3.0,89,0.00,,---,0.00,VWS V14.01,2013-01-26 03:45:00,
2013-01-25 22:50:00,23.6,20.8,30.03,South,176,0.0,3.0,89,0.00,,---,0.00,VWS V14.01,2013-01-26 03:50:00,
2013-01-25 22:55:00,23.5,20.7,30.03,South,176,0.0,3.0,89,0.00,,---,0.00,VWS V14.01,2013-01-26 03:55:00,
2013-01-25 23:00:00,23.5,20.7,30.03,South,176,2.0,2.0,89,0.00,,---,0.00,VWS V14.01,2013-01-26 04:00:00,
2013-01-25 23:05:00,23.5,20.7,30.03,South,175,1.0,2.0,89,0.00,,---,0.00,VWS V14.01,2013-01-26 04:05:00,
2013-01-25 23:10:00,23.6,20.8,30.03,South,175,0.0,3.0,89,0.00,,---,0.00,VWS V14.01,2013-01-26 04:10:00,
2013-01-25 23:15:00,23.6,20.8,30.04,South,175,1.0,3.0,89,0.00,,---,0.00,VWS V14.01,2013-01-26 04:15:00,
2013-01-25 23:20:00,23.6,20.8,30.04,South,175,0.0,3.0,89,0.00,,---,0.00,VWS V14.01,2013-01-26 04:20:00,
2013-01-25 23:25:00,23.6,20.8,30.04,South,175,1.0,3.0,89,0.00,,---,0.00,VWS V14.01,2013-01-26 04:25:00,
2013-01-25 23:30:00,23.6,20.8,30.04,South,175,0.0,2.0,89,0.00,,---,0.00,VWS V14.01,2013-01-26 04:30:00,
2013-01-25 23:35:00,23.6,20.8,30.05,South,175,0.0,2.0,89,0.00,,---,0.00,VWS V14.01,2013-01-26 04:35:00,
2013-01-25 23:40:00,23.6,20.8,30.05,South,175,0.0,2.0,89,0.00,,---,0.00,VWS V14.01,2013-01-26 04:40:00,
2013-01-25 23:45:00,23.6,20.8,30.04,South,175,0.0,3.0,89,0.00,,---,0.00,VWS V14.01,2013-01-26 04:45:00,
2013-01-25 23:50:00,23.6,20.8,30.05,South,175,1.0,3.0,89,0.00,,---,0.00,VWS V14.01,2013-01-26 04:50:00,
2013-01-25 23:55:00,23.6,20.8,30.05,South,175,1.0,3.0,89,0.00,,---,0.00,VWS V14.01,2013-01-26 04:55:00,